GW5140 Weather Reports


time (UTC)temp
C
wind
direction
speed
KPH
gust
KPH
rain 1hr
cm
rain 24hr
cm
rain mn
cm
humidity
%
barometer
mb
20260508033832 3 235 0.0 0.0 0.00 0.00 0.00 86 1017.6
20260508033331 3 235 0.0 0.0 0.00 0.00 0.00 86 1017.8
20260508032828 3 235 0.0 0.0 0.00 0.00 0.00 86 1017.7
20260508032325 4 235 0.0 0.0 0.00 0.00 0.00 86 1017.7
20260508031821 4 242 0.0 0.0 0.00 0.00 0.00 85 1017.8
20260508031318 4 241 0.0 0.0 0.00 0.00 0.00 85 1017.6
20260508030814 4 240 0.0 0.0 0.00 0.00 0.00 85 1017.5
20260508030312 4 240 0.0 0.0 0.00 0.00 0.00 85 1017.5
20260508025808 5 243 0.0 0.0 0.00 0.00 0.00 84 1017.5
20260508025306 5 242 0.0 0.0 0.00 0.00 0.00 84 1017.5
20260508024802 5 237 0.0 0.0 0.00 0.00 0.00 83 1017.5
20260508024259 5 236 0.0 0.0 0.00 0.00 0.00 84 1017.6
20260508023756 5 251 0.0 0.0 0.00 0.00 0.00 83 1017.3
20260508023253 5 253 0.0 0.0 0.00 0.00 0.00 82 1017.2
20260508022748 5 248 0.0 0.0 0.00 0.00 0.00 82 1017.2
20260508022245 5 246 0.0 0.0 0.00 0.00 0.00 80 1017.1
20260508021743 6 246 0.0 0.0 0.00 0.00 0.00 80 1017.0
20260508021238 6 253 0.0 0.0 0.00 0.00 0.00 79 1016.9
20260508020735 6 262 0.0 0.0 0.00 0.00 0.00 78 1016.9
20260508020232 6 267 0.0 0.0 0.00 0.00 0.00 78 1016.9
20260508015729 6 297 0.0 0.0 0.00 0.00 0.00 75 1016.8
20260508015226 6 141 0.0 0.0 0.00 0.00 0.00 78 1016.6
20260508014723 7 211 0.0 0.0 0.00 0.00 0.00 77 1016.6
20260508014220 7 234 0.0 0.0 0.00 0.00 0.00 76 1016.5
20260508013716 7 272 0.0 0.0 0.00 0.00 0.00 72 1016.6
20260508013212 8 326 0.0 0.0 0.00 0.00 0.00 73 1016.5
20260508012710 8 273 0.0 0.0 0.00 0.00 0.00 72 1016.5
20260508012206 8 350 3.2 3.2 0.00 0.00 0.00 69 1016.4
20260508011705 8 35 1.6 4.8 0.00 0.00 0.00 67 1016.3
20260508011202 8 338 3.2 3.2 0.00 0.00 0.00 68 1015.9
20260508010659 8 269 0.0 0.0 0.00 0.00 0.00 69 1016.0
20260508010156 8 276 0.0 0.0 0.00 0.00 0.00 70 1016.1
20260508005654 9 204 0.0 1.6 0.00 0.00 0.00 69 1015.9
20260508005150 9 239 0.0 0.0 0.00 0.00 0.00 64 1015.8
20260508004646 9 12 1.6 3.2 0.00 0.00 0.00 61 1015.9
20260508004142 10 320 3.2 3.2 0.00 0.00 0.00 65 1015.9
20260508003639 10 332 0.0 3.2 0.00 0.00 0.00 54 1015.8
20260508003137 10 107 1.6 1.6 0.00 0.00 0.00 59 1015.7
20260508002633 11 293 4.8 4.8 0.00 0.00 0.00 46 1015.4
20260508002131 11 52 1.6 4.8 0.00 0.00 0.00 53 1015.6
20260508001625 12 308 0.0 9.7 0.00 0.00 0.00 42 1015.4
20260508001122 12 304 1.6 3.2 0.00 0.00 0.00 45 1015.5
20260508000618 12 322 4.8 4.8 0.00 0.00 0.00 58 1015.3
20260508000116 12 172 4.8 6.4 0.00 0.00 0.00 44 1015.1
20260507235612 13 220 0.0 4.8 0.00 0.00 0.00 44 1015.0
20260507235110 13 340 3.2 6.4 0.00 0.00 0.00 39 1014.9
20260507234606 13 198 3.2 17.7 0.00 0.00 0.00 39 1015.0
20260507234103 13 168 0.0 6.4 0.00 0.00 0.00 42 1015.0
20260507233559 14 359 9.7 11.3 0.00 0.00 0.00 40 1014.8
20260507233058 14 185 11.3 16.1 0.00 0.00 0.00 36 1014.9
20260507232553 14 202 0.0 16.1 0.00 0.00 0.00 36 1014.5
20260507232051 14 341 6.4 12.9 0.00 0.00 0.00 38 1014.6
20260507231547 14 152 4.8 4.8 0.00 0.00 0.00 37 1014.3
20260507231045 15 1 0.0 11.3 0.00 0.00 0.00 38 1014.4
20260507230541 15 20 1.6 6.4 0.00 0.00 0.00 36 1014.4
20260507230038 15 116 6.4 20.9 0.00 0.00 0.00 37 1014.3
20260507225533 15 209 4.8 12.9 0.00 0.00 0.00 36 1014.3
20260507225030 16 115 9.7 11.3 0.00 0.00 0.00 36 1014.3
20260507224526 16 49 4.8 12.9 0.00 0.00 0.00 39 1014.2
20260507224022 16 198 6.4 12.9 0.00 0.00 0.00 37 1014.4
20260507223518 16 217 0.0 3.2 0.00 0.00 0.00 36 1014.2
20260507223016 15 279 0.0 0.0 0.00 0.00 0.00 44 1014.2
20260507222513 15 14 4.8 4.8 0.00 0.00 0.00 40 1014.3
20260507222009 16 207 6.4 9.7 0.00 0.00 0.00 37 1014.2
20260507221506 16 259 1.6 12.9 0.00 0.00 0.00 34 1014.3
20260507221002 16 49 9.7 14.5 0.00 0.00 0.00 39 1013.9
20260507220500 17 335 1.6 9.7 0.00 0.00 0.00 38 1013.9
20260507215956 17 215 3.2 9.7 0.00 0.00 0.00 33 1013.6
20260507215453 16 282 1.6 4.8 0.00 0.00 0.00 40 1013.8
20260507214951 15 288 1.6 14.5 0.00 0.00 0.00 38 1013.8
20260507214448 15 14 4.8 6.4 0.00 0.00 0.00 41 1013.9
20260507213943 15 182 3.2 6.4 0.00 0.00 0.00 40 1013.8
20260507213440 16 56 3.2 12.9 0.00 0.00 0.00 36 1013.8
20260507212937 17 195 8.0 14.5 0.00 0.00 0.00 35 1013.7
20260507212432 16 271 3.2 4.8 0.00 0.00 0.00 40 1013.6
20260507211930 16 254 1.6 4.8 0.00 0.00 0.00 37 1013.5
20260507211426 16 285 1.6 12.9 0.00 0.00 0.00 38 1013.5
20260507210923 16 228 3.2 17.7 0.00 0.00 0.00 36 1013.8
20260507210420 16 10 3.2 4.8 0.00 0.00 0.00 35 1013.6
20260507205917 16 245 4.8 4.8 0.00 0.00 0.00 40 1013.5
20260507205414 16 121 3.2 9.7 0.00 0.00 0.00 35 1013.6
20260507204910 16 260 3.2 14.5 0.00 0.00 0.00 39 1013.6
20260507204406 16 62 0.0 4.8 0.00 0.00 0.00 37 1013.5
20260507203904 17 207 4.8 14.5 0.00 0.00 0.00 39 1013.7
20260507203402 16 268 3.2 4.8 0.00 0.00 0.00 41 1013.4
20260507202858 17 43 14.5 20.9 0.00 0.00 0.00 35 1013.3
20260507202355 16 58 6.4 12.9 0.00 0.00 0.00 37 1013.5
20260507201850 16 74 0.0 6.4 0.00 0.00 0.00 39 1013.6
20260507201346 16 178 1.6 11.3 0.00 0.00 0.00 40 1013.8
20260507200842 16 352 9.7 16.1 0.00 0.00 0.00 38 1013.9
20260507200338 16 284 3.2 9.7 0.00 0.00 0.00 41 1013.6
20260507195835 16 190 3.2 16.1 0.00 0.00 0.00 38 1013.8
20260507195332 16 180 1.6 4.8 0.00 0.00 0.00 45 1013.9
20260507194829 15 199 4.8 9.7 0.00 0.00 0.00 42 1014.2
20260507194325 16 335 1.6 4.8 0.00 0.00 0.00 42 1014.0
20260507193822 15 170 4.8 6.4 0.00 0.00 0.00 46 1014.3
20260507193320 15 179 8.0 9.7 0.00 0.00 0.00 42 1014.3
20260507192815 15 113 3.2 14.5 0.00 0.00 0.00 45 1014.6
20260507192312 16 9 1.6 11.3 0.00 0.00 0.00 45 1014.5
20260507191808 15 314 4.8 11.3 0.00 0.00 0.00 47 1014.6
20260507191305 15 193 1.6 6.4 0.00 0.00 0.00 42 1014.5
20260507190802 15 210 3.2 6.4 0.00 0.00 0.00 46 1014.4
20260507190301 15 180 1.6 1.6 0.00 0.00 0.00 42 1014.3
20260507185759 16 323 12.9 17.7 0.00 0.00 0.00 43 1014.6
20260507185255 15 54 3.2 9.7 0.00 0.00 0.00 43 1014.6
20260507184752 15 274 4.8 11.3 0.00 0.00 0.00 50 1014.5
20260507184250 15 297 3.2 11.3 0.00 0.00 0.00 45 1014.4
20260507183747 15 184 6.4 11.3 0.00 0.00 0.00 44 1014.4
20260507183244 15 127 6.4 14.5 0.00 0.00 0.00 42 1014.4
20260507182741 15 286 6.4 11.3 0.00 0.00 0.00 44 1014.6
20260507182236 16 26 3.2 4.8 0.00 0.00 0.00 48 1014.4
20260507181733 16 77 6.4 14.5 0.00 0.00 0.00 50 1014.6
20260507181229 15 124 6.4 16.1 0.00 0.00 0.00 47 1014.6
20260507180726 15 152 4.8 6.4 0.00 0.00 0.00 48 1014.5
20260507180223 15 341 6.4 9.7 0.00 0.00 0.00 47 1014.6
20260507175718 15 216 1.6 9.7 0.00 0.00 0.00 45 1014.6
20260507175216 15 155 8.0 16.1 0.00 0.00 0.00 47 1014.7
20260507174713 15 10 0.0 11.3 0.00 0.00 0.00 46 1014.7
20260507174211 14 111 3.2 4.8 0.00 0.00 0.00 52 1014.6
20260507173708 15 40 6.4 11.3 0.00 0.00 0.00 52 1014.7
20260507173205 15 147 8.0 11.3 0.00 0.00 0.00 46 1014.7
20260507172702 15 24 1.6 9.7 0.00 0.00 0.00 53 1014.8
20260507172159 15 138 8.0 14.5 0.00 0.00 0.00 48 1015.3
20260507171658 14 337 3.2 9.7 0.00 0.00 0.00 50 1015.3
20260507171156 15 298 3.2 6.4 0.00 0.00 0.00 46 1015.3
20260507170653 15 290 3.2 4.8 0.00 0.00 0.00 54 1015.3
20260507170150 13 204 4.8 9.7 0.00 0.00 0.00 50 1015.5
20260507165645 13 92 3.2 11.3 0.00 0.00 0.00 47 1015.4
20260507165142 13 342 1.6 3.2 0.00 0.00 0.00 52 1015.4
20260507164638 13 190 0.0 1.6 0.00 0.00 0.00 47 1015.6
20260507164135 13 62 4.8 11.3 0.00 0.00 0.00 47 1015.5
20260507163632 14 130 3.2 16.1 0.00 0.00 0.00 46 1015.5
20260507163130 15 92 3.2 14.5 0.00 0.00 0.00 49 1015.5
20260507162626 13 141 6.4 9.7 0.00 0.00 0.00 50 1015.7
20260507162122 14 321 3.2 11.3 0.00 0.00 0.00 50 1015.8
20260507161618 13 164 6.4 11.3 0.00 0.00 0.00 52 1015.8
20260507161115 13 283 3.2 12.9 0.00 0.00 0.00 50 1015.8
20260507160612 14 197 4.8 9.7 0.00 0.00 0.00 47 1015.6
20260507160108 15 324 1.6 4.8 0.00 0.00 0.00 47 1015.8
20260507155603 14 265 4.8 9.7 0.00 0.00 0.00 46 1015.8
20260507155101 14 183 6.4 11.3 0.00 0.00 0.00 50 1015.9
20260507154557 14 204 9.7 14.5 0.00 0.00 0.00 48 1015.9
20260507154055 14 231 6.4 12.9 0.00 0.00 0.00 45 1016.0
20260507153551 14 190 12.9 14.5 0.00 0.00 0.00 47 1016.0
20260507153048 14 75 0.0 14.5 0.00 0.00 0.00 44 1016.1
20260507152543 13 32 1.6 16.1 0.00 0.00 0.00 49 1016.1
20260507152040 13 204 3.2 12.9 0.00 0.00 0.00 49 1016.0
20260507151536 13 186 9.7 11.3 0.00 0.00 0.00 46 1015.9
20260507151033 14 287 4.8 9.7 0.00 0.00 0.00 52 1016.0
20260507150530 13 3 9.7 11.3 0.00 0.00 0.00 50 1016.2
20260507150027 12 67 6.4 12.9 0.00 0.00 0.00 49 1016.1
20260507145522 13 343 3.2 9.7 0.00 0.00 0.00 47 1016.2
20260507145020 12 244 3.2 6.4 0.00 0.00 0.00 55 1016.4
20260507144516 12 150 0.0 9.7 0.00 0.00 0.00 54 1016.5
20260507144014 12 272 3.2 6.4 0.00 0.00 0.00 48 1016.5
20260507143511 12 258 1.6 9.7 0.00 0.00 0.00 55 1016.6
20260507143008 12 199 3.2 11.3 0.00 0.00 0.00 53 1016.5
20260507142503 12 322 1.6 6.4 0.00 0.00 0.00 52 1016.5
20260507142001 13 146 9.7 11.3 0.00 0.00 0.00 51 1016.6
20260507141456 13 20 4.8 9.7 0.00 0.00 0.00 60 1016.8
20260507140953 13 346 6.4 6.4 0.00 0.00 0.00 56 1016.8
20260507140450 13 349 9.7 12.9 0.00 0.00 0.00 58 1017.1
20260507135948 12 173 3.2 6.4 0.00 0.00 0.00 55 1017.0
20260507135444 12 171 8.0 12.9 0.00 0.00 0.00 56 1017.1
20260507134942 13 173 0.0 3.2 0.00 0.00 0.00 55 1017.3
20260507134438 12 6 0.0 4.8 0.00 0.00 0.00 60 1017.2
20260507133934 12 69 1.6 3.2 0.00 0.00 0.00 56 1017.5
20260507133430 12 218 0.0 1.6 0.00 0.00 0.00 62 1017.4
20260507132929 12 183 4.8 6.4 0.00 0.00 0.00 60 1017.3
20260507132425 13 170 3.2 3.2 0.00 0.00 0.00 62 1017.6
20260507131921 12 76 0.0 0.0 0.00 0.00 0.00 61 1017.5
20260507131418 12 119 1.6 3.2 0.00 0.00 0.00 64 1017.4
20260507130915 12 80 0.0 3.2 0.00 0.00 0.00 66 1017.5
20260507130412 11 150 0.0 1.6 0.00 0.00 0.00 69 1017.6
20260507125911 11 63 1.6 3.2 0.00 0.00 0.00 72 1017.4
20260507125409 10 183 1.6 1.6 0.00 0.00 0.00 73 1017.3
20260507124906 10 64 0.0 3.2 0.00 0.00 0.00 76 1017.4
20260507124402 9 66 0.0 1.6 0.00 0.00 0.00 84 1017.5
20260507123901 8 74 0.0 1.6 0.00 0.00 0.00 89 1017.4
20260507123357 8 45 0.0 1.6 0.00 0.00 0.00 93 1017.5
20260507122854 8 15 0.0 1.6 0.00 0.00 0.00 94 1017.5
20260507122349 6 322 0.0 0.0 0.00 0.00 0.00 94 1017.3
20260507121845 6 320 0.0 0.0 0.00 0.00 0.00 94 1017.3
20260507121341 5 320 0.0 0.0 0.00 0.00 0.00 94 1017.3
20260507120838 5 320 0.0 0.0 0.00 0.00 0.00 94 1017.3
20260507120334 5 323 0.0 0.0 0.00 0.00 0.00 94 1017.6
20260507115831 5 323 0.0 0.0 0.00 0.00 0.00 94 1017.4
20260507115326 5 323 0.0 0.0 0.00 0.00 0.00 94 1017.4
20260507114822 5 323 0.0 0.0 0.00 0.00 0.00 93 1017.5
20260507114319 5 323 0.0 0.0 0.00 0.00 0.00 94 1017.4
20260507113817 5 323 0.0 0.0 0.00 0.00 0.00 93 1017.5
20260507113314 5 324 0.0 0.0 0.00 0.00 0.00 93 1017.4
20260507112811 5 326 0.0 0.0 0.00 0.00 0.00 93 1017.5
20260507112308 5 320 0.0 0.0 0.00 0.00 0.00 93 1017.1
20260507111806 5 320 0.0 0.0 0.00 0.00 0.00 93 1017.2
20260507111302 4 320 0.0 0.0 0.00 0.00 0.00 93 1017.0
20260507110758 4 320 0.0 0.0 0.00 0.00 0.00 93 1017.2
20260507110255 5 320 0.0 0.0 0.00 0.00 0.00 93 1017.1
20260507105752 5 320 0.0 0.0 0.00 0.00 0.00 93 1016.8
20260507105248 5 320 0.0 0.0 0.00 0.00 0.00 93 1016.8
20260507104745 5 321 0.0 0.0 0.00 0.00 0.00 93 1016.8
20260507104242 5 321 0.0 0.0 0.00 0.00 0.00 93 1016.7
20260507103738 5 321 0.0 0.0 0.00 0.00 0.00 93 1016.7
20260507103234 5 321 0.0 0.0 0.00 0.00 0.00 93 1016.7
20260507102730 5 321 0.0 0.0 0.00 0.00 0.00 93 1016.6
20260507102227 5 321 0.0 0.0 0.00 0.00 0.00 93 1016.7
20260507101723 5 323 0.0 0.0 0.00 0.00 0.00 93 1016.5
20260507101219 5 316 0.0 0.0 0.00 0.00 0.00 93 1016.7
20260507100716 5 317 0.0 0.0 0.00 0.00 0.00 93 1016.6
20260507100215 5 313 0.0 0.0 0.00 0.00 0.00 93 1016.6
20260507095712 5 313 0.0 0.0 0.00 0.00 0.00 93 1016.7
20260507095208 5 313 0.0 0.0 0.00 0.00 0.00 92 1016.5
20260507094705 5 313 0.0 0.0 0.00 0.00 0.00 92 1016.7
20260507094202 5 313 0.0 0.0 0.00 0.00 0.00 92 1016.6
20260507093659 5 313 0.0 0.0 0.00 0.00 0.00 92 1016.4
20260507093158 5 313 0.0 0.0 0.00 0.00 0.00 92 1016.5
20260507092654 6 314 0.0 0.0 0.00 0.00 0.00 92 1016.4
20260507092151 6 314 0.0 0.0 0.00 0.00 0.00 92 1016.4
20260507091647 6 314 0.0 0.0 0.00 0.00 0.00 92 1016.4
20260507091144 6 313 0.0 0.0 0.00 0.00 0.00 92 1016.4
20260507090639 6 312 0.0 0.0 0.00 0.00 0.00 92 1016.4
20260507090137 6 312 0.0 0.0 0.00 0.00 0.00 92 1016.4
20260507085634 6 330 0.0 0.0 0.00 0.00 0.00 92 1016.4
20260507085130 6 330 0.0 0.0 0.00 0.00 0.00 92 1016.4
20260507084627 6 332 0.0 0.0 0.00 0.00 0.00 92 1016.5
20260507084124 6 340 0.0 0.0 0.00 0.00 0.00 91 1016.4
20260507083621 6 327 0.0 0.0 0.00 0.00 0.00 91 1016.4
20260507083118 6 328 0.0 0.0 0.00 0.00 0.00 91 1016.3
20260507082613 7 332 0.0 0.0 0.00 0.00 0.00 91 1016.5
20260507082110 7 333 0.0 0.0 0.00 0.00 0.00 90 1016.6
20260507081607 7 327 0.0 0.0 0.00 0.00 0.00 90 1016.4
20260507081103 7 326 0.0 0.0 0.00 0.00 0.00 90 1016.4
20260507080559 7 327 0.0 0.0 0.00 0.00 0.00 90 1016.5
20260507080056 8 327 0.0 0.0 0.00 0.00 0.00 90 1016.4
20260507075551 8 323 0.0 0.0 0.00 0.00 0.00 90 1016.4
20260507075048 8 323 0.0 0.0 0.00 0.00 0.00 90 1016.5
20260507074544 8 323 0.0 0.0 0.00 0.00 0.00 90 1016.3
20260507074043 8 323 0.0 0.0 0.00 0.00 0.00 90 1016.4
20260507073539 8 312 0.0 0.0 0.00 0.00 0.00 90 1016.3
20260507073035 8 314 0.0 0.0 0.00 0.00 0.00 90 1016.2
20260507072533 8 322 0.0 0.0 0.00 0.00 0.00 90 1016.1
20260507072030 8 312 0.0 0.0 0.00 0.00 0.00 89 1016.2
20260507071527 8 316 0.0 0.0 0.00 0.00 0.00 89 1016.4
20260507071024 8 316 0.0 0.0 0.00 0.00 0.00 90 1016.3
20260507070521 8 316 0.0 0.0 0.00 0.00 0.00 90 1016.4
20260507070018 8 319 0.0 0.0 0.00 0.00 0.00 90 1016.2
20260507065514 8 319 0.0 0.0 0.00 0.00 0.00 90 1016.3
20260507065012 8 319 0.0 0.0 0.00 0.00 0.00 90 1016.3
20260507064509 8 321 0.0 0.0 0.00 0.00 0.00 90 1016.3
20260507064008 8 315 0.0 0.0 0.00 0.00 0.00 90 1016.1
20260507063504 9 317 0.0 0.0 0.00 0.00 0.00 90 1016.2
20260507063002 9 321 0.0 0.0 0.00 0.00 0.00 90 1016.4
20260507062458 9 314 0.0 0.0 0.00 0.00 0.00 90 1016.4
20260507061955 8 310 0.0 0.0 0.00 0.00 0.00 90 1016.4
20260507061453 9 316 0.0 0.0 0.00 0.00 0.00 90 1016.3
20260507060952 9 315 0.0 0.0 0.00 0.00 0.00 90 1016.2
20260507060448 9 318 0.0 0.0 0.00 0.00 0.00 90 1016.3
20260507055945 9 326 0.0 0.0 0.00 0.00 0.00 91 1016.3
20260507055440 9 327 0.0 0.0 0.00 0.00 0.00 91 1016.3
20260507054937 10 318 0.0 0.0 0.00 0.00 0.00 90 1016.1
20260507054433 10 320 0.0 0.0 0.00 0.00 0.00 90 1016.3
20260507053930 10 320 0.0 0.0 0.00 0.00 0.00 90 1016.4
20260507053428 10 320 0.0 0.0 0.00 0.00 0.00 90 1016.4
20260507052926 10 321 0.0 0.0 0.00 0.00 0.00 90 1016.4
20260507052424 10 324 0.0 0.0 0.00 0.00 0.00 91 1016.5
20260507051920 10 325 0.0 0.0 0.00 0.00 0.00 91 1016.7
20260507051418 10 324 1.6 3.2 0.00 0.00 0.00 91 1016.8
20260507050915 10 283 0.0 0.0 0.00 0.00 0.00 91 1016.8
20260507050411 10 283 0.0 0.0 0.00 0.00 0.00 91 1016.7
20260507045908 10 283 0.0 0.0 0.00 0.00 0.00 91 1016.9
20260507045405 10 284 0.0 0.0 0.00 0.00 0.00 91 1016.9
20260507044902 10 291 0.0 0.0 0.00 0.00 0.00 91 1016.7
20260507044359 10 281 0.0 0.0 0.00 0.00 0.00 90 1016.7
20260507043855 10 280 0.0 1.6 0.00 0.00 0.00 90 1016.8
20260507043351 10 280 0.0 0.0 0.00 0.00 0.00 90 1016.8
20260507042847 10 280 0.0 0.0 0.00 0.00 0.00 90 1016.8
20260507042344 10 280 0.0 0.0 0.00 0.00 0.00 90 1016.7
20260507041840 10 286 0.0 0.0 0.00 0.00 0.00 90 1016.9
20260507041337 10 286 0.0 0.0 0.00 0.00 0.00 90 1016.8
20260507040834 10 356 1.6 3.2 0.00 0.00 0.00 91 1016.9
20260507040331 10 258 0.0 0.0 0.00 0.00 0.00 92 1016.9
20260507035826 10 176 0.0 0.0 0.00 1.70 1.70 92 1016.8
20260507035321 10 280 0.0 0.0 0.00 1.70 1.70 92 1016.7
20260507034820 10 302 0.0 0.0 0.00 1.70 1.70 92 1016.4
20260507034316 10 303 0.0 0.0 0.00 1.70 1.70 92 1016.3